Location: Bathurst
(33.4193°S, 149.5775°E)
Time: 09:16:19
(UTC+10:00)

Vanguard 1 Rocket - Pass Details

Date: 14 June 2021
Orbit: 650 x 4226 km, 34.3° (Epoch: 02 August)

Event Time Altitude Azimuth Distance (km) Brightness Sun altitude
Rises 08:38:26 0° 317° (NW) 8,188 12.3 15.4°
Reaches altitude 10° 08:44:57 10° 322° (NW) 6,814 12.0 16.4°
Maximum altitude 09:03:39 46° 26° (NNE) 3,085 11.3 19.2°
Drops below altitude 10° 09:13:52 10° 95° (E) 3,883 11.2 20.6°
Sets 09:16:27 0° 102° (ESE) 4,531 11.4 21.0°
